Temp
17 17 17 18 19 19 19 19 20 19 20 19 20 19 19 19 18 18 19 20 20 19 19 19 19 19 19 19 19 19 18 18 18 18 18 18 18 18
18 17 17 19 18 19 19 19 19 20 21 20 19 20 19 19 18 19 19 19 20 20 20 19 19 19 19 19 19 19 19 19 19 19 19 19 18 18
17 18 17 17 18 19 18 18 19 19 20 21 21 20 18 18 18 18 18 18 19 20 20 20 19 19 19 19 19 19 19 19 19 19 19 19 19 19
17 17 17 17 17 17 18 18 19 19 19 20 20 20 19 18 18 18 18 19 20 20 19 20 20 20 20 19 19 19 19 19 20 19 19 19 20 20
18 18 18 17 18 17 17 17 18 18 18 17 18 18 18 19 19 18 18 18 18 19 19 19 19 20 20 19 19 19 19 19 19 19 19 20 20 20
17 18 17 17 17 18 18 18 18 18 17 17 18 18 17 18 18 18 18 18 18 19 19 19 19 18 19 19 19 19 20 20 20 20 20 20 20 19
16 16 16 17 17 17 17 17 17 17 17 17 17 17 17 17 17 17 17 17 18 18 18 18 18 18 19 19 19 20 20 20 20 20 20 20 20 19
15 15 15 17 16 17 17 17 17 17 16 17 18 19 18 17 18 18 18 18 19 19 19 19 19 19 19 19 19 18 18 19 19 19 19 19 19 19
14 14 14 16 14 14 14 16 16 16 16 16 15 15 16 16 16 15 16 16 17 17 17 18 18 19 19 19 18 18 18 18 18 18 19 19 19 19
12 12 13 13 13 14 14 13 14 14 14 14 15 14 14 14 14 14 14 14 15 16 16 16 17 17 18 19 18 18 17 17 18 18 18 18 18 18
12 11 13 12 12 14 14 12 12 12 14 13 13 13 13 13 13 13 13 15 16 17 18 18 18 18 18 18 19 19 18 17 17 17 18 18 18 18
12 11 13 13 13 13 13 12 11 12 12 12 12 12 13 13 13 13 13 14 15 16 17 16 17 17 17 18 18 18 17 17 17 17 17 17 17 17
12 12 11 13 14 14 13 13 12 13 12 11 12 12 13 13 13 12 13 13 13 14 15 14 14 15 15 16 17 17 17 16 16 16 16 16 16 16
11 10 11 13 13 13 13 12 12 12 10 10 11 11 11 11 11 11 12 12 12 12 13 14 14 13 14 15 16 16 16 16 16 16 16 17 16 16
12 13 13 13 12 12 11 11 11 10 10 11 11 10 10 9 10 10 11 11 10 11 12 12 13 13 13 13 13 13 14 15 15 16 17 16 16 16
10 9 11 11 11 10 9 9 8 10 10 9 9 9 9 9 10 9 9 9 9 11 11 11 11 11 12 12 12 13 14 14 15 14 15 15 15 16
12 9 9 9 10 9 9 9 9 9 9 8 8 8 9 9 9 8 8 8 9 9 10 10 9 10 10 10 11 12 12 12 13 13 13 13 14 14
9 9 9 9 9 9 9 9 9 8 8 8 9 9 8 8 8 8 8 8 8 9 9 8 8 9 8 10 10 10 11 12 12 12 12 13 13 14
9 9 9 9 9 9 9 9 8 7 7 8 8 8 8 8 9 9 8 8 8 8 8 8 8 8 7 8 8 9 9 9 10 11 11 12 12 13
9 9 9 8 8 8 8 8 8 8 8 8 8 8 8 8 8 8 8 7 8 8 9 10 10 9 8 8 8 9 9 9 9 10 10 11 11 12
9 9 8 8 8 8 7 7 7 7 7 7 8 7 7 8 8 8 8 8 8 9 9 10 9 8 9 10 11 11 10 9 9 8 9 9 10 10
9 9 8 8 8 7 7 7 7 7 7 7 7 7 7 7 7 8 8 8 9 9 9 9 9 10 10 11 11 11 11 10 10 9 9 9 8 8
8 8 8 8 7 7 7 7 8 7 7 7 7 7 7 7 7 7 8 8 8 8 9 9 9 10 10 11 10 11 11 11 11 11 11 10 10 9
Height
1557 1557 1559 1559 1562 1563 1564 1565 1565 1565 1564 1566 1566 1567 1568 1569 1568 1567 1566 1566 1567 1568 1568 1568 1568 1568 1568 1569 1569 1570 1570 1570 1571 1571 1572 1572 1572 1573
1554 1555 1555 1558 1559 1560 1561 1562 1562 1563 1561 1562 1563 1564 1565 1565 1565 1563 1563 1562 1563 1563 1563 1563 1562 1562 1562 1562 1562 1562 1563 1563 1564 1565 1565 1566 1566 1566
1550 1551 1551 1554 1556 1557 1558 1558 1559 1560 1560 1560 1560 1561 1560 1560 1561 1561 1560 1559 1560 1558 1558 1558 1558 1557 1557 1556 1555 1553 1553 1556 1557 1557 1558 1558 1558 1558
1546 1547 1549 1549 1550 1551 1552 1553 1555 1556 1556 1556 1557 1557 1557 1557 1556 1555 1555 1556 1557 1556 1553 1552 1551 1550 1550 1549 1547 1545 1545 1548 1550 1550 1550 1551 1550 1550
1543 1544 1545 1545 1546 1547 1547 1548 1548 1549 1550 1551 1552 1552 1553 1553 1552 1551 1550 1550 1549 1550 1547 1545 1544 1543 1542 1542 1541 1541 1541 1541 1542 1543 1542 1542 1542 1543
1542 1542 1542 1542 1542 1543 1544 1544 1545 1545 1546 1546 1547 1547 1546 1546 1545 1545 1544 1544 1542 1543 1542 1541 1539 1537 1535 1535 1535 1534 1534 1535 1535 1535 1535 1535 1535 1535
1542 1541 1541 1540 1541 1541 1541 1541 1541 1542 1542 1542 1542 1542 1542 1542 1540 1539 1538 1538 1537 1537 1535 1534 1533 1532 1530 1529 1528 1527 1527 1527 1527 1527 1526 1527 1527 1527
1539 1540 1539 1538 1538 1538 1538 1538 1538 1538 1539 1540 1540 1539 1538 1538 1537 1536 1534 1534 1532 1533 1531 1529 1529 1527 1526 1525 1524 1521 1520 1519 1519 1518 1518 1518 1519 1519
1537 1537 1537 1538 1535 1535 1534 1534 1533 1533 1532 1532 1532 1533 1534 1533 1532 1531 1530 1529 1526 1526 1525 1522 1523 1520 1519 1518 1516 1514 1513 1511 1510 1509 1509 1510 1510 1510
1532 1532 1532 1531 1527 1529 1529 1530 1530 1530 1529 1529 1529 1528 1528 1526 1526 1526 1525 1523 1521 1520 1519 1516 1516 1513 1512 1511 1509 1507 1506 1504 1503 1501 1501 1501 1501 1501
1529 1528 1527 1526 1525 1525 1525 1526 1525 1526 1528 1524 1522 1520 1521 1521 1520 1519 1519 1519 1516 1516 1515 1511 1510 1507 1506 1504 1503 1501 1498 1498 1495 1494 1493 1492 1492 1491
1526 1526 1522 1522 1521 1520 1520 1519 1520 1520 1519 1517 1517 1517 1517 1514 1514 1514 1513 1513 1511 1510 1511 1507 1505 1503 1499 1497 1497 1495 1493 1492 1490 1489 1487 1486 1484 1482
1525 1525 1523 1519 1517 1516 1516 1515 1515 1514 1514 1515 1514 1512 1509 1508 1509 1508 1507 1506 1506 1504 1504 1502 1500 1497 1495 1492 1492 1490 1488 1486 1484 1483 1481 1479 1477 1476
1521 1521 1517 1516 1515 1515 1514 1513 1512 1511 1513 1511 1509 1508 1507 1505 1503 1503 1502 1500 1499 1498 1496 1496 1493 1493 1490 1487 1485 1485 1483 1482 1480 1477 1474 1473 1471 1469
1516 1515 1515 1514 1513 1511 1512 1512 1510 1512 1513 1513 1511 1507 1504 1501 1498 1497 1496 1496 1494 1492 1493 1491 1488 1486 1483 1481 1479 1477 1477 1475 1473 1472 1469 1467 1464 1463
1513 1513 1513 1513 1512 1512 1511 1512 1511 1509 1507 1507 1506 1504 1503 1501 1497 1494 1492 1491 1489 1489 1488 1486 1484 1481 1478 1477 1475 1472 1471 1469 1468 1464 1462 1459 1457 1456
1512 1514 1515 1515 1517 1514 1512 1512 1511 1511 1510 1507 1504 1503 1505 1500 1495 1492 1489 1488 1488 1487 1485 1483 1480 1477 1475 1472 1470 1468 1464 1462 1460 1457 1454 1451 1450 1447
1513 1515 1514 1514 1515 1516 1513 1513 1511 1510 1510 1506 1506 1505 1505 1500 1495 1492 1489 1487 1485 1485 1483 1478 1475 1472 1469 1467 1466 1463 1460 1458 1456 1453 1449 1445 1442 1441
1514 1515 1515 1514 1514 1513 1513 1513 1511 1508 1508 1508 1505 1505 1504 1500 1496 1493 1489 1488 1486 1483 1480 1478 1476 1473 1469 1467 1463 1462 1457 1453 1450 1446 1443 1439 1436 1433
1513 1514 1514 1514 1513 1511 1512 1513 1510 1508 1509 1505 1504 1504 1503 1500 1496 1494 1491 1486 1484 1483 1480 1478 1476 1474 1471 1467 1462 1458 1455 1450 1446 1441 1437 1434 1430 1427
1512 1512 1513 1513 1510 1509 1509 1510 1507 1507 1506 1504 1505 1504 1502 1499 1495 1492 1489 1486 1485 1483 1480 1478 1476 1471 1469 1466 1462 1458 1453 1450 1446 1440 1435 1429 1424 1420
1509 1511 1510 1510 1507 1507 1507 1506 1507 1507 1505 1505 1504 1502 1500 1497 1493 1490 1487 1486 1485 1483 1480 1477 1474 1471 1468 1464 1461 1456 1452 1447 1443 1438 1433 1427 1423 1417
1505 1506 1507 1506 1505 1505 1503 1503 1505 1505 1504 1503 1502 1500 1497 1494 1491 1489 1487 1485 1483 1482 1478 1475 1472 1469 1465 1462 1458 1454 1449 1445 1440 1435 1432 1427 1423 1418
Wind_Speed
13 13 13 11 8 8 8 8 7 6 5 7 7 8 8 8 9 10 14 16 16 19 23 26 27 26 26 27 28 29 28 27 27 27 27 27 26 27
13 14 14 14 12 11 11 10 10 9 8 6 10 7 9 9 11 11 11 15 16 16 16 16 17 20 23 26 30 35 33 30 28 27 27 28 29 30
14 16 16 16 14 14 13 13 12 11 11 10 10 13 14 12 11 13 13 14 15 18 19 19 19 21 23 25 27 31 35 31 28 29 30 32 32 31
12 14 14 14 16 17 16 16 16 14 15 15 14 13 15 14 16 17 16 17 19 20 26 26 26 27 27 25 25 24 27 29 29 30 32 33 33 33
12 13 13 14 16 16 18 18 17 18 19 17 17 17 16 16 16 18 18 18 19 21 25 23 24 27 28 27 24 23 24 28 29 31 32 31 29 29
6 7 10 12 14 14 14 14 15 16 15 17 18 17 17 18 20 20 19 18 19 17 18 22 25 26 25 27 28 27 27 29 29 30 29 29 30 29
6 5 7 9 9 11 10 10 10 10 11 14 14 14 15 15 16 16 17 16 16 15 16 16 19 20 21 21 24 28 31 32 32 32 32 31 31 30
7 8 8 13 13 15 17 17 18 16 13 15 17 18 17 17 16 17 18 18 20 16 20 20 18 20 21 21 23 24 30 30 29 31 31 32 32 31
6 7 7 9 11 9 13 16 19 20 21 20 18 17 18 17 17 18 18 19 20 18 19 23 20 23 22 23 25 24 25 27 28 30 30 31 32 32
5 5 6 10 17 14 13 10 11 12 12 12 12 13 13 16 16 15 18 21 22 20 18 23 20 21 20 20 23 25 26 26 27 28 30 32 34 35
5 6 8 11 15 13 14 13 12 11 12 17 19 20 21 20 20 21 19 20 23 22 19 21 23 23 22 23 21 24 25 25 23 25 27 28 30 33
6 7 12 14 15 15 14 14 12 10 11 12 15 15 16 17 16 17 16 19 20 22 17 17 19 20 23 20 20 16 16 21 22 28 26 28 29 30
3 3 9 12 11 11 10 10 11 12 11 10 10 8 11 10 12 9 13 15 18 19 18 21 20 20 21 24 20 22 22 26 25 23 22 24 24 26
3 4 9 11 11 11 10 8 8 8 7 7 8 9 11 13 12 16 18 17 17 19 20 20 24 21 23 24 24 20 21 20 22 24 22 21 25 28
4 8 9 9 8 8 7 6 6 4 5 7 8 8 8 9 10 10 9 12 13 17 18 19 23 23 23 23 21 21 21 19 21 20 20 21 25 24
8 8 9 7 5 6 8 7 6 7 5 5 6 7 8 8 8 9 9 11 12 10 12 12 18 20 21 18 20 22 22 25 24 25 25 25 22 23
3 3 3 3 3 4 5 6 7 6 6 7 8 8 8 7 8 9 9 10 11 12 12 11 14 15 16 18 21 22 23 22 21 22 22 22 23 24
2 0 1 2 2 3 4 4 6 7 7 7 8 8 9 9 10 10 10 10 10 10 12 13 15 18 18 13 10 16 18 20 21 23 24 25 24 21
2 1 1 1 1 2 3 4 4 6 7 7 7 7 9 9 10 9 10 10 11 12 13 14 16 19 20 20 18 13 18 19 21 22 21 23 25 22
3 3 2 2 1 1 2 2 3 4 5 6 6 7 8 8 9 9 10 12 13 12 14 13 13 16 16 18 22 22 19 19 23 25 25 24 25 25
4 4 4 3 1 1 2 3 4 5 5 5 6 6 6 7 7 9 10 14 15 14 14 14 15 17 15 16 19 21 20 20 22 20 22 21 21 20
6 6 6 5 3 3 2 3 4 5 5 4 5 5 6 6 7 9 10 11 11 13 14 16 15 15 15 15 19 20 20 23 20 21 18 14 23 22
6 6 7 7 6 5 4 4 5 5 5 5 5 4 5 6 8 9 9 10 11 13 15 17 16 15 16 16 18 20 19 21 22 22 17 21 24 24
Wind_Direction
232 232 232 231 214 233 236 240 251 236 226 211 224 215 221 237 247 257 253 252 253 255 259 260 258 259 261 262 262 261 261 261 263 264 266 268 271 275
231 231 227 234 223 236 236 240 245 249 264 222 216 222 230 237 260 268 260 260 256 258 259 263 263 262 263 265 266 261 258 259 263 263 265 270 272 275
222 233 233 222 229 239 245 237 240 244 247 250 247 246 250 256 253 264 264 261 259 261 258 262 265 267 269 269 278 271 252 254 257 261 266 269 269 268
235 226 232 231 230 230 230 238 236 239 245 248 247 246 269 263 260 262 263 259 261 264 271 264 267 271 273 276 278 277 246 248 255 264 269 274 272 265
248 246 244 241 241 237 241 243 247 247 248 250 252 254 258 261 261 269 269 269 266 265 273 284 277 270 270 268 272 268 257 254 260 266 268 266 265 263
276 259 256 256 254 255 257 258 258 258 259 260 264 266 267 268 273 273 271 263 259 263 263 266 270 278 275 268 266 264 261 261 265 268 270 266 263 262
296 296 293 267 271 268 264 262 263 269 269 269 271 278 279 280 288 297 292 293 294 289 281 274 271 275 281 280 281 273 265 266 268 268 266 264 261 261
281 279 274 286 267 264 262 263 264 269 268 267 272 274 274 278 280 278 278 278 279 271 278 276 269 270 271 267 264 263 266 268 266 266 264 263 259 260
291 286 288 271 279 276 285 275 274 271 266 264 264 267 273 275 276 278 279 275 274 274 276 277 274 274 273 273 276 277 270 270 267 264 262 259 259 259
298 298 296 275 267 268 270 282 275 272 282 279 276 273 265 262 262 275 281 286 287 287 279 278 287 282 280 276 276 276 283 282 270 265 265 262 260 260
290 289 271 263 279 295 291 287 285 286 287 290 285 271 272 273 273 278 281 283 284 283 279 277 281 282 279 275 275 280 280 290 287 273 267 265 266 267
294 292 295 277 283 290 292 285 284 283 272 263 279 298 301 301 296 291 286 277 279 285 287 288 282 284 287 285 284 275 274 289 293 297 291 279 273 272
332 312 273 301 302 299 296 290 283 290 298 300 282 267 250 249 252 259 259 266 278 274 275 293 282 280 284 286 278 277 280 279 280 279 279 288 293 286
318 306 303 314 307 300 300 303 306 315 312 304 302 300 293 283 288 279 270 271 276 282 285 284 283 279 278 279 282 281 280 284 282 284 290 284 284 288
297 314 320 330 341 347 352 340 356 352 335 319 312 308 303 303 313 315 306 296 296 285 287 280 285 290 287 286 287 285 288 285 280 284 281 282 285 283
333 336 342 350 5 2 10 2 355 345 349 341 331 331 335 339 344 337 328 320 320 315 314 303 289 289 293 296 296 293 288 288 287 285 285 284 282 280
315 341 5 12 4 27 25 22 14 16 6 3 359 7 353 357 356 1 3 1 357 346 336 330 315 315 309 300 293 287 283 281 282 287 289 292 287 282
60 91 81 79 60 30 35 25 16 12 4 9 0 355 345 353 354 0 1 1 359 348 340 344 350 354 348 338 302 302 299 295 292 293 294 288 288 290
95 167 160 126 81 64 48 26 22 4 16 5 5 356 349 351 5 353 356 356 355 351 351 349 345 346 345 338 338 337 327 317 309 304 295 297 298 296
202 213 220 209 178 69 15 351 7 8 356 8 0 355 348 350 359 355 358 357 351 353 351 353 344 334 332 329 323 330 333 326 323 318 310 301 294 298
241 233 230 224 235 305 316 331 355 340 349 5 343 338 335 346 351 351 356 354 356 348 346 345 335 349 336 325 325 329 331 330 328 322 326 318 313 307
241 243 247 249 248 254 285 321 325 325 325 323 314 325 328 344 345 351 350 347 344 342 339 338 337 338 337 332 331 330 331 330 335 330 328 322 332 322
241 246 250 253 259 268 273 282 289 292 300 307 314 325 342 351 353 351 349 346 339 339 336 339 337 336 334 329 328 328 330 336 336 338 336 323 326 330